{"data":{"norad_id":40882,"intl_designator":"2015-042A","name":"INMARSAT 5-F3","alt_names":[],"object_type":"PAYLOAD","status":"ACTIVE","operator":null,"country":"IM","launch_date":"2015-08-28","launch_site_code":"TYMSC","launch_vehicle":null,"mission":null,"orbit_class":"UNKNOWN","rcs_meters":49.8107,"size_class":null,"mass_kg":null,"dimensions":null,"purposes":["comms"],"wikipedia_slug":null,"has_3d_model":false,"image_url":null,"decayed_at":null,"tle_current":{"epoch":"2026-09-19T07:33:38.547072Z","epoch_age_seconds":124653,"freshness":"FRESH","line1":"1 40882U 15042A   26262.31502948  .00000046  00000+0  00000+0 0  9992","line2":"2 40882   0.0180 149.4785 0001070 243.4372 258.2944  1.00272838 40519","mean_motion":1.00272838,"eccentricity":0.000107,"inclination_deg":0.018,"raan_deg":149.4785,"arg_perigee_deg":243.4372,"mean_anomaly_deg":258.2944,"bstar":0,"rev_number":4051,"period_min":1436.0818230756,"perigee_km":35781.788174915,"apogee_km":35790.811364383,"semimajor_km":42164.436769649,"source":"CELESTRAK","updated_at":"2026-09-20T09:00:35.218586Z"}}}